TimeCST,TemperatureF,Dew PointF,Humidity,Sea Level PressureIn,VisibilityMPH,Wind Direction,Wind SpeedMPH,Gust SpeedMPH,PrecipitationIn,Events,Conditions,WindDirDegrees,DateUTC
12:15 AM,37.4,24.8,60,30.19,10.0,SSE,10.4,-,N/A,,Clear,160,2014-01-04 06:15:00
12:35 AM,35.6,24.8,65,30.19,10.0,South,8.1,-,N/A,,Clear,170,2014-01-04 06:35:00
12:55 AM,35.6,24.8,65,30.18,10.0,South,9.2,-,N/A,,Clear,170,2014-01-04 06:55:00
1:15 AM,35.6,24.8,65,30.18,10.0,South,8.1,-,N/A,,Clear,170,2014-01-04 07:15:00
1:35 AM,35.6,24.8,65,30.17,10.0,South,6.9,-,N/A,,Clear,170,2014-01-04 07:35:00
1:55 AM,33.8,24.8,70,30.17,10.0,SSE,9.2,-,N/A,,Clear,150,2014-01-04 07:55:00
2:15 AM,33.8,24.8,70,30.15,10.0,SE,8.1,-,N/A,,Clear,140,2014-01-04 08:15:00
2:35 AM,32.0,24.8,75,30.15,10.0,SE,6.9,-,N/A,,Clear,140,2014-01-04 08:35:00
2:55 AM,32.0,24.8,75,30.15,10.0,SSE,6.9,-,N/A,,Clear,160,2014-01-04 08:55:00
3:15 AM,33.8,24.8,70,30.14,10.0,SSE,6.9,-,N/A,,Clear,150,2014-01-04 09:15:00
3:35 AM,33.8,26.6,75,30.14,10.0,SSE,8.1,-,N/A,,Clear,150,2014-01-04 09:35:00
3:55 AM,33.8,24.8,70,30.13,10.0,SSE,6.9,-,N/A,,Clear,150,2014-01-04 09:55:00
4:15 AM,32.0,26.6,80,30.12,10.0,SE,6.9,-,N/A,,Clear,140,2014-01-04 10:15:00
4:35 AM,32.0,26.6,80,30.12,10.0,SE,5.8,-,N/A,,Clear,130,2014-01-04 10:35:00
4:55 AM,32.0,26.6,80,30.12,10.0,SE,6.9,-,N/A,,Clear,140,2014-01-04 10:55:00
5:15 AM,32.0,26.6,80,30.12,10.0,SE,6.9,-,N/A,,Clear,130,2014-01-04 11:15:00
5:35 AM,33.8,26.6,75,30.11,10.0,SE,6.9,-,N/A,,Clear,140,2014-01-04 11:35:00
5:55 AM,33.8,28.4,81,30.11,10.0,SE,6.9,-,N/A,,Clear,140,2014-01-04 11:55:00
6:15 AM,33.8,28.4,81,30.11,10.0,SE,4.6,-,N/A,,Clear,140,2014-01-04 12:15:00
6:35 AM,33.8,30.2,87,30.11,10.0,SSE,4.6,-,N/A,,Mostly Cloudy,150,2014-01-04 12:35:00
6:55 AM,35.6,30.2,81,30.11,10.0,SSE,6.9,-,N/A,,Overcast,150,2014-01-04 12:55:00
7:15 AM,35.6,30.2,81,30.11,10.0,SSE,8.1,-,N/A,,Overcast,150,2014-01-04 13:15:00
7:35 AM,37.4,32.0,81,30.11,10.0,SSE,6.9,-,N/A,,Overcast,160,2014-01-04 13:35:00
7:55 AM,37.4,32.0,81,30.11,10.0,SSE,6.9,-,N/A,,Overcast,150,2014-01-04 13:55:00
8:15 AM,39.2,33.8,81,30.10,10.0,SSE,6.9,-,N/A,,Overcast,150,2014-01-04 14:15:00
8:35 AM,39.2,33.8,81,30.10,10.0,SSE,8.1,-,N/A,,Overcast,160,2014-01-04 14:35:00
8:55 AM,41.0,35.6,81,30.10,10.0,SSE,6.9,-,N/A,,Overcast,150,2014-01-04 14:55:00
9:15 AM,42.8,35.6,76,30.09,10.0,SSE,8.1,-,N/A,,Overcast,150,2014-01-04 15:15:00
9:35 AM,44.6,37.4,76,30.09,10.0,South,8.1,-,N/A,,Mostly Cloudy,170,2014-01-04 15:35:00
9:55 AM,48.2,39.2,71,30.08,10.0,South,10.4,16.1,N/A,,Partly Cloudy,170,2014-01-04 15:55:00
10:15 AM,51.8,41.0,67,30.08,10.0,South,10.4,18.4,N/A,,Mostly Cloudy,180,2014-01-04 16:15:00
10:35 AM,51.8,42.8,71,30.07,10.0,South,15.0,-,N/A,,Mostly Cloudy,180,2014-01-04 16:35:00
10:55 AM,55.4,42.8,63,30.06,10.0,South,19.6,24.2,N/A,,Mostly Cloudy,190,2014-01-04 16:55:00
11:15 AM,55.4,44.6,67,30.05,10.0,South,13.8,25.3,N/A,,Mostly Cloudy,180,2014-01-04 17:15:00
11:35 AM,57.2,44.6,63,30.03,10.0,South,15.0,20.7,N/A,,Scattered Clouds,190,2014-01-04 17:35:00
11:55 AM,57.2,44.6,63,30.02,10.0,South,18.4,25.3,N/A,,Mostly Cloudy,190,2014-01-04 17:55:00
12:15 PM,57.2,44.6,63,30.00,10.0,South,12.7,24.2,N/A,,Overcast,180,2014-01-04 18:15:00
12:35 PM,59.0,46.4,63,29.98,10.0,South,12.7,18.4,N/A,,Overcast,190,2014-01-04 18:35:00
12:55 PM,59.0,46.4,63,29.98,10.0,South,13.8,-,N/A,,Overcast,190,2014-01-04 18:55:00
1:15 PM,60.8,48.2,63,29.96,10.0,South,13.8,19.6,N/A,,Overcast,190,2014-01-04 19:15:00
1:35 PM,60.8,48.2,63,29.96,10.0,SSW,16.1,21.9,N/A,,Overcast,200,2014-01-04 19:35:00
1:55 PM,62.6,48.2,59,29.95,10.0,South,17.3,23.0,N/A,,Overcast,190,2014-01-04 19:55:00
2:15 PM,62.6,48.2,59,29.94,10.0,SSW,12.7,23.0,N/A,,Overcast,200,2014-01-04 20:15:00
2:35 PM,62.6,48.2,59,29.93,10.0,South,13.8,-,N/A,,Overcast,190,2014-01-04 20:35:00
2:55 PM,62.6,48.2,59,29.92,10.0,South,15.0,20.7,N/A,,Overcast,190,2014-01-04 20:55:00
3:15 PM,62.6,48.2,59,29.91,10.0,South,13.8,23.0,N/A,,Overcast,180,2014-01-04 21:15:00
3:35 PM,62.6,48.2,59,29.91,10.0,South,13.8,26.5,N/A,,Overcast,180,2014-01-04 21:35:00
3:55 PM,62.6,48.2,59,29.90,10.0,South,17.3,20.7,N/A,,Overcast,180,2014-01-04 21:55:00
4:15 PM,60.8,48.2,63,29.90,10.0,South,11.5,26.5,N/A,,Overcast,170,2014-01-04 22:15:00
4:35 PM,60.8,48.2,63,29.89,10.0,South,17.3,23.0,N/A,,Mostly Cloudy,180,2014-01-04 22:35:00
4:55 PM,60.8,48.2,63,29.89,10.0,South,13.8,21.9,N/A,,Overcast,170,2014-01-04 22:55:00
5:15 PM,60.8,48.2,63,29.89,10.0,South,13.8,21.9,N/A,,Overcast,170,2014-01-04 23:15:00
5:35 PM,60.8,48.2,63,29.88,10.0,South,15.0,20.7,N/A,,Overcast,180,2014-01-04 23:35:00
5:55 PM,59.0,48.2,67,29.89,10.0,South,15.0,20.7,N/A,,Overcast,170,2014-01-04 23:55:00
6:15 PM,59.0,48.2,67,29.89,10.0,South,15.0,20.7,N/A,,Overcast,180,2014-01-05 00:15:00
6:35 PM,59.0,48.2,67,29.89,10.0,South,10.4,-,N/A,,Overcast,170,2014-01-05 00:35:00
6:55 PM,59.0,48.2,67,29.90,10.0,South,12.7,20.7,N/A,,Overcast,180,2014-01-05 00:55:00
7:15 PM,57.2,48.2,72,29.90,10.0,South,15.0,20.7,N/A,,Overcast,190,2014-01-05 01:15:00
7:35 PM,57.2,48.2,72,29.90,10.0,South,11.5,19.6,N/A,,Overcast,170,2014-01-05 01:35:00
7:55 PM,57.2,48.2,72,29.90,10.0,South,12.7,17.3,N/A,,Overcast,170,2014-01-05 01:55:00
8:15 PM,57.2,48.2,72,29.90,10.0,South,13.8,18.4,N/A,,Overcast,170,2014-01-05 02:15:00
8:35 PM,57.2,48.2,72,29.90,10.0,SSE,9.2,-,N/A,,Overcast,150,2014-01-05 02:35:00
8:55 PM,57.2,48.2,72,29.90,10.0,SSE,10.4,-,N/A,,Overcast,150,2014-01-05 02:55:00
9:15 PM,55.4,48.2,77,29.90,10.0,SSE,9.2,-,N/A,,Overcast,150,2014-01-05 03:15:00
9:35 PM,55.4,50.0,82,29.90,10.0,SSE,9.2,-,N/A,,Overcast,160,2014-01-05 03:35:00
9:55 PM,55.4,48.2,77,29.90,10.0,SSE,10.4,-,N/A,,Overcast,160,2014-01-05 03:55:00
10:15 PM,55.4,50.0,82,29.90,10.0,SSE,9.2,-,N/A,,Overcast,160,2014-01-05 04:15:00
10:35 PM,55.4,50.0,82,29.89,10.0,South,8.1,-,N/A,,Overcast,170,2014-01-05 04:35:00
10:55 PM,55.4,50.0,82,29.89,10.0,SSE,10.4,-,N/A,,Overcast,160,2014-01-05 04:55:00
11:15 PM,55.4,50.0,82,29.88,10.0,SSE,11.5,19.6,N/A,,Overcast,160,2014-01-05 05:15:00
11:35 PM,55.4,50.0,82,29.87,10.0,SSE,10.4,-,N/A,,Overcast,160,2014-01-05 05:35:00
11:55 PM,55.4,51.8,88,29.87,10.0,South,11.5,17.3,N/A,,Overcast,170,2014-01-05 05:55:00